TimeCDT,TemperatureF,Dew PointF,Humidity,Sea Level PressureIn,VisibilityMPH,Wind Direction,Wind SpeedMPH,Gust SpeedMPH,PrecipitationIn,Events,Conditions,WindDirDegrees,DateUTC
12:12 AM,24.8,21.2,86,29.84,10.0,NW,9.2,-,N/A,,Overcast,310,2013-03-12 05:12:00
12:32 AM,26.6,21.2,80,29.84,10.0,NW,12.7,-,N/A,Snow,Light Snow,310,2013-03-12 05:32:00
12:53 AM,26.6,23.0,86,29.85,10.0,NNW,12.7,-,N/A,Snow,Light Snow,330,2013-03-12 05:53:00
1:12 AM,26.6,23.0,86,29.85,10.0,NW,10.4,19.6,N/A,Snow,Light Snow,320,2013-03-12 06:12:00
1:32 AM,26.6,23.0,86,29.85,7.0,NNW,13.8,-,N/A,Snow,Light Snow,330,2013-03-12 06:32:00
1:53 AM,26.6,23.0,86,29.85,7.0,NNW,17.3,-,N/A,Snow,Light Snow,330,2013-03-12 06:53:00
2:12 AM,26.6,23.0,86,29.85,7.0,NNW,17.3,-,N/A,Snow,Light Snow,330,2013-03-12 07:12:00
2:52 AM,24.8,21.2,86,29.85,10.0,NNW,15.0,-,N/A,Snow,Light Snow,340,2013-03-12 07:52:00
3:12 AM,24.8,21.2,86,29.86,10.0,NNW,13.8,-,N/A,Snow,Light Snow,340,2013-03-12 08:12:00
3:33 AM,24.8,19.4,80,29.86,10.0,North,16.1,-,N/A,Snow,Light Snow,350,2013-03-12 08:33:00
4:12 AM,21.2,19.4,93,29.86,7.0,North,16.1,-,N/A,Snow,Light Snow,350,2013-03-12 09:12:00
4:33 AM,21.2,17.6,86,29.87,7.0,North,15.0,-,N/A,Snow,Light Snow,350,2013-03-12 09:33:00
4:52 AM,19.4,17.6,93,29.88,10.0,North,13.8,-,N/A,Snow,Light Snow,350,2013-03-12 09:52:00
5:12 AM,17.6,17.6,100,29.89,7.0,North,10.4,-,N/A,,Scattered Clouds,350,2013-03-12 10:12:00
5:33 AM,17.6,15.8,93,29.90,10.0,North,11.5,-,N/A,,Mostly Cloudy,360,2013-03-12 10:33:00
5:52 AM,15.8,14.0,93,29.91,10.0,North,11.5,-,N/A,,Mostly Cloudy,360,2013-03-12 10:52:00
6:13 AM,15.8,12.2,86,29.92,10.0,North,10.4,-,N/A,,Mostly Cloudy,360,2013-03-12 11:13:00
6:33 AM,14.0,12.2,93,29.93,10.0,North,10.4,-,N/A,,Overcast,360,2013-03-12 11:33:00
6:52 AM,14.0,10.4,86,29.93,10.0,North,9.2,-,N/A,,Overcast,360,2013-03-12 11:52:00
7:13 AM,14.0,10.4,86,29.94,7.0,North,9.2,-,N/A,,Overcast,360,2013-03-12 12:13:00
7:33 AM,14.0,12.2,93,29.95,10.0,North,9.2,-,N/A,Snow,Light Snow,360,2013-03-12 12:33:00
7:52 AM,15.8,12.2,86,29.95,7.0,North,11.5,-,N/A,Snow,Light Snow,360,2013-03-12 12:52:00
8:13 AM,15.8,12.2,86,29.96,10.0,North,13.8,-,N/A,Snow,Light Snow,360,2013-03-12 13:13:00
8:33 AM,15.8,12.2,86,29.97,4.0,North,12.7,-,N/A,Snow,Light Snow,360,2013-03-12 13:33:00
8:52 AM,15.8,12.2,86,29.98,7.0,North,13.8,17.3,N/A,Snow,Light Snow,350,2013-03-12 13:52:00
9:13 AM,17.6,14.0,86,29.99,5.0,North,15.0,-,N/A,Snow,Light Snow,360,2013-03-12 14:13:00
9:33 AM,17.6,14.0,86,30.00,5.0,North,16.1,-,N/A,Snow,Light Snow,360,2013-03-12 14:33:00
9:52 AM,17.6,14.0,86,30.01,7.0,North,16.1,-,N/A,Snow,Light Snow,350,2013-03-12 14:52:00
10:13 AM,19.4,15.8,86,30.02,10.0,North,16.1,-,N/A,,Overcast,350,2013-03-12 15:13:00
10:32 AM,19.4,15.8,86,30.03,5.0,North,17.3,-,N/A,Snow,Light Snow,350,2013-03-12 15:32:00
10:52 AM,19.4,15.8,86,30.04,10.0,North,15.0,-,N/A,,Overcast,350,2013-03-12 15:52:00
11:13 AM,19.4,15.8,86,30.05,7.0,NNW,19.6,25.3,N/A,,Overcast,340,2013-03-12 16:13:00
11:32 AM,21.2,15.8,80,30.05,10.0,North,18.4,28.8,N/A,,Overcast,350,2013-03-12 16:32:00
11:52 AM,21.2,17.6,86,30.06,7.0,North,19.6,26.5,N/A,,Overcast,350,2013-03-12 16:52:00
12:13 PM,21.2,17.6,86,30.06,7.0,North,25.3,-,N/A,,Overcast,350,2013-03-12 17:13:00
12:32 PM,21.2,17.6,86,30.06,10.0,NNW,24.2,29.9,N/A,,Overcast,340,2013-03-12 17:32:00
12:52 PM,23.0,17.6,80,30.06,7.0,NNW,26.5,34.5,N/A,,Mostly Cloudy,340,2013-03-12 17:52:00
1:13 PM,21.2,17.6,86,30.08,10.0,NNW,25.3,31.1,N/A,,Mostly Cloudy,340,2013-03-12 18:13:00
1:32 PM,23.0,17.6,80,30.08,10.0,NNW,27.6,34.5,N/A,,Overcast,340,2013-03-12 18:32:00
1:53 PM,23.0,17.6,80,30.08,10.0,North,24.2,31.1,N/A,,Overcast,350,2013-03-12 18:53:00
2:13 PM,24.8,17.6,74,30.09,10.0,NNW,26.5,32.2,N/A,,Mostly Cloudy,340,2013-03-12 19:13:00
2:32 PM,23.0,17.6,80,30.09,10.0,NNW,27.6,32.2,N/A,,Mostly Cloudy,340,2013-03-12 19:32:00
2:53 PM,23.0,17.6,80,30.09,10.0,North,24.2,35.7,N/A,,Mostly Cloudy,350,2013-03-12 19:53:00
3:13 PM,24.8,17.6,74,30.10,10.0,North,25.3,32.2,N/A,,Mostly Cloudy,350,2013-03-12 20:13:00
3:32 PM,24.8,17.6,74,30.10,10.0,North,27.6,34.5,N/A,,Mostly Cloudy,350,2013-03-12 20:32:00
3:53 PM,24.8,17.6,74,30.11,10.0,North,26.5,32.2,N/A,,Mostly Cloudy,350,2013-03-12 20:53:00
4:12 PM,24.8,17.6,74,30.11,10.0,North,25.3,32.2,N/A,,Mostly Cloudy,350,2013-03-12 21:12:00
4:32 PM,23.0,17.6,80,30.12,10.0,North,27.6,34.5,N/A,,Mostly Cloudy,350,2013-03-12 21:32:00
4:53 PM,23.0,17.6,80,30.13,10.0,North,26.5,33.4,N/A,,Scattered Clouds,350,2013-03-12 21:53:00
5:12 PM,23.0,17.6,80,30.13,10.0,North,29.9,33.4,N/A,,Scattered Clouds,350,2013-03-12 22:12:00
5:32 PM,24.8,17.6,74,30.13,10.0,North,27.6,34.5,N/A,,Scattered Clouds,350,2013-03-12 22:32:00
5:53 PM,23.0,17.6,80,30.14,10.0,North,21.9,26.5,N/A,,Scattered Clouds,350,2013-03-12 22:53:00
6:12 PM,21.2,17.6,86,30.15,10.0,North,23.0,27.6,N/A,,Clear,360,2013-03-12 23:12:00
6:32 PM,21.2,17.6,86,30.16,10.0,North,19.6,31.1,N/A,,Clear,360,2013-03-12 23:32:00
6:53 PM,21.2,17.6,86,30.17,10.0,North,24.2,28.8,N/A,,Clear,360,2013-03-12 23:53:00
7:12 PM,21.2,15.8,80,30.18,10.0,North,20.7,27.6,N/A,,Clear,360,2013-03-13 00:12:00
7:33 PM,19.4,15.8,86,30.19,10.0,North,18.4,24.2,N/A,,Clear,360,2013-03-13 00:33:00
7:53 PM,19.4,15.8,86,30.20,10.0,North,19.6,28.8,N/A,,Scattered Clouds,360,2013-03-13 00:53:00
8:12 PM,19.4,15.8,86,30.21,10.0,North,18.4,-,N/A,,Scattered Clouds,360,2013-03-13 01:12:00
8:33 PM,19.4,15.8,86,30.22,10.0,North,18.4,26.5,N/A,,Scattered Clouds,10,2013-03-13 01:33:00
8:52 PM,19.4,15.8,86,30.23,10.0,North,21.9,26.5,N/A,,Mostly Cloudy,360,2013-03-13 01:52:00
9:12 PM,19.4,15.8,86,30.23,10.0,North,23.0,26.5,N/A,,Overcast,360,2013-03-13 02:12:00
9:33 PM,19.4,15.8,86,30.23,10.0,North,21.9,29.9,N/A,,Overcast,360,2013-03-13 02:33:00
9:52 PM,19.4,15.8,86,30.23,10.0,North,19.6,23.0,N/A,,Overcast,10,2013-03-13 02:52:00
10:12 PM,19.4,15.8,86,30.24,10.0,North,16.1,23.0,N/A,,Mostly Cloudy,10,2013-03-13 03:12:00
10:33 PM,17.6,14.0,86,30.25,10.0,North,13.8,19.6,N/A,,Scattered Clouds,10,2013-03-13 03:33:00
10:52 PM,17.6,14.0,86,30.25,10.0,North,15.0,20.7,N/A,,Mostly Cloudy,10,2013-03-13 03:52:00
11:12 PM,17.6,14.0,86,30.26,10.0,North,16.1,19.6,N/A,,Mostly Cloudy,10,2013-03-13 04:12:00
11:33 PM,17.6,15.8,93,30.26,10.0,North,16.1,19.6,N/A,,Overcast,10,2013-03-13 04:33:00
11:52 PM,17.6,14.0,86,30.27,10.0,North,12.7,-,N/A,,Mostly Cloudy,10,2013-03-13 04:52:00